Location: Murphys Corner
(39.1062°N, 77.8244°W)
Time: 14:46:37
(UTC+00:00)

BlueWalker 3 - Visible Passes

Search period start: 30 January 2023 00:00
Search period end: 09 February 2023 00:00
Orbit: 499 x 517 km, 53.2° (Epoch: 29 January)

Date Brightness Start Highest point End Pass type
(mag) Time Alt. Az. Time Alt. Az. Time Alt. Az.
30 Jan 4.8 00:47:25 10° NNW 00:47:59 11° NNW 00:47:59 11° NNW visible
31 Jan 4.6 00:28:37 10° NNW 00:29:48 11° N 00:29:55 11° N visible
01 Feb 4.5 00:09:48 10° NNW 00:10:55 11° N 00:11:48 10° N visible
01 Feb 4.5 23:50:59 10° NNW 23:52:01 11° N 23:53:02 10° N visible
02 Feb 4.5 23:32:09 10° NNW 23:33:05 11° N 23:34:02 10° N visible
03 Feb 4.4 23:13:18 10° NNW 23:14:10 11° N 23:15:01 10° N visible
05 Feb 4.5 00:33:15 10° NNW 00:34:00 12° N 00:34:00 12° N visible
06 Feb 4.2 00:14:13 10° NNW 00:15:52 14° N 00:15:52 14° N visible
06 Feb 4.0 23:55:11 10° NNW 23:57:20 14° NNE 23:57:46 14° NNE visible
07 Feb 4.0 23:36:07 10° NNW 23:38:21 15° NNE 23:39:43 13° NE visible
08 Feb 4.7 01:13:52 10° NW 01:14:31 14° NW 01:14:31 14° NW visible
08 Feb 4.0 23:17:03 10° NNW 23:19:20 15° NNE 23:21:37 10° NE visible
